This is the latest recevied weather packets stored in our database for station/object W8CEN. If no packets are shown the sender has not sent any weather packets the latest 10 day(s).
| Time | Temp. | Humidity | Pressure | Rain* | Wind** | Luminosity | Snow |
|---|---|---|---|---|---|---|---|
| 1777922256 | 24.44° C | 39% | 982 hPa | 0 mm | - | 767 W/m² | - |
| 1777921952 | 25° C | 36% | 982.1 hPa | 0 mm | - | 713 W/m² | - |
| 1777921647 | 25° C | 37% | 982.3 hPa | 0 mm | - | 794 W/m² | - |
| 1777921344 | 25° C | 36% | 982.3 hPa | 0 mm | - | 800 W/m² | - |
| 1777921040 | 24.44° C | 37% | 982.2 hPa | 0 mm | - | 809 W/m² | - |
| 1777920737 | 25° C | 39% | 982.1 hPa | 0 mm | - | 818 W/m² | - |
| 1777920433 | 25° C | 41% | 982.1 hPa | 0 mm | - | 826 W/m² | - |
| 1777920129 | 25° C | 40% | 982.3 hPa | 0 mm | - | 836 W/m² | - |
| 1777919825 | 25° C | 41% | 982.5 hPa | 0 mm | - | 845 W/m² | - |
| 1777919522 | 25° C | 39% | 982.5 hPa | 0 mm | - | 853 W/m² | - |
| 1777919220 | 25° C | 38% | 982.7 hPa | 0 mm | - | 858 W/m² | - |
| 1777918918 | 25° C | 39% | 982.7 hPa | 0 mm | - | 862 W/m² | - |
| 1777918615 | 24.44° C | 41% | 983 hPa | 0 mm | - | 863 W/m² | - |
| 1777918312 | 24.44° C | 42% | 982.9 hPa | 0 mm | - | 867 W/m² | - |
| 1777918011 | 25° C | 40% | 982.8 hPa | 0 mm | - | 871 W/m² | - |
| 1777917710 | 24.44° C | 45% | 982.9 hPa | 0 mm | - | 878 W/m² | - |
| 1777917407 | 24.44° C | 41% | 982.9 hPa | 0 mm | - | 879 W/m² | - |
| 1777917103 | 24.44° C | 42% | 983.2 hPa | 0 mm | - | 883 W/m² | - |
| 1777916801 | 25° C | 44% | 983.3 hPa | 0 mm | - | 882 W/m² | - |
| 1777916497 | 23.89° C | 46% | 983.2 hPa | 0 mm | - | 883 W/m² | - |
| 1777916195 | 23.89° C | 42% | 983.4 hPa | 0 mm | - | 886 W/m² | - |
| 1777915892 | 23.89° C | 41% | 983.4 hPa | 0 mm | - | 883 W/m² | - |
| 1777915589 | 23.33° C | 47% | 983.6 hPa | 0 mm | - | 882 W/m² | - |
| 1777915285 | 23.33° C | 45% | 983.7 hPa | 0 mm | - | 883 W/m² | - |
| 1777914982 | 23.33° C | 42% | 983.8 hPa | 0 mm | - | 882 W/m² | - |
* Rain latest hour (hover to see other rain measurements)
** Current wind speed in m/s (hover to see current wind gust speed)